Temp
17 17 17 18 18 18 19 19 19 20 20 21 21 21 22 22 22 23 23 24 23 23 23 23 23 23 23 23 24 24 19 19 22 21 23 23 22 23 23 22 22 22 22 21 20
17 17 17 17 18 18 19 19 19 20 20 21 21 21 22 23 23 24 24 24 23 23 23 23 23 23 24 24 24 21 18 22 22 23 22 23 23 23 22 22 21 21 22 21 21
17 17 17 17 18 18 19 19 20 20 21 21 21 22 22 23 24 24 24 23 23 23 23 23 23 23 23 24 23 20 21 22 25 25 25 23 23 23 22 20 22 22 22 21 21
16 16 17 17 18 18 19 19 20 20 21 21 21 21 22 23 23 24 23 23 23 23 23 23 23 23 21 22 24 24 24 24 27 26 25 22 23 23 23 23 24 23 23 21 21
16 16 17 17 18 19 19 19 20 20 21 22 22 21 22 22 24 24 24 23 23 23 23 23 23 23 22 23 24 23 24 26 26 26 26 25 24 23 22 24 24 23 22 21 21
16 16 17 17 18 19 19 19 20 21 21 21 21 21 21 21 24 24 23 23 23 23 23 23 24 24 24 23 23 25 25 25 24 24 24 23 23 24 25 23 23 22 22 22 22
16 16 17 17 18 19 19 20 20 21 22 21 21 21 21 23 24 24 23 23 23 23 24 24 24 24 24 23 25 25 25 23 22 24 22 25 23 22 24 23 22 22 21 22 22
16 16 17 17 18 19 19 19 20 21 21 21 21 21 22 24 24 24 23 23 23 23 24 24 24 24 24 24 24 24 22 22 24 24 24 25 23 23 23 23 22 22 21 21 22
16 16 17 17 18 19 19 19 20 20 20 20 21 20 22 23 24 24 24 23 24 24 24 24 24 24 23 21 21 19 23 24 25 24 22 24 24 22 22 22 22 22 22 22 22
15 16 17 17 17 18 19 19 20 20 20 21 19 19 22 23 23 24 24 24 24 24 24 24 23 19 17 19 20 23 23 22 24 25 23 23 23 21 22 22 22 22 22 23 23
15 16 16 16 17 18 18 19 19 19 19 18 19 19 21 22 23 24 24 24 23 24 21 22 20 20 22 22 22 22 22 23 22 25 23 22 23 21 22 22 21 22 22 23 23
15 15 16 16 16 17 17 16 13 13 12 19 20 20 21 21 21 24 24 23 23 21 21 19 19 21 22 22 23 22 23 22 22 22 24 22 23 22 21 22 22 22 22 23 24
14 15 15 16 16 16 16 15 15 15 12 18 20 20 22 22 22 24 24 24 22 21 21 19 22 22 23 22 22 22 22 22 23 22 22 20 21 20 21 22 22 23 23 23 24
14 14 15 16 16 16 15 16 16 16 12 16 20 22 22 23 22 24 24 24 22 20 18 20 21 23 22 22 20 22 21 23 23 22 22 22 20 20 19 20 21 23 23 23 24
13 13 14 14 14 15 15 16 17 16 15 22 22 22 22 22 24 23 24 25 21 21 20 21 22 22 23 23 21 22 22 21 22 21 21 21 19 21 19 20 21 21 23 23 24
13 13 13 13 14 14 15 16 17 14 15 20 22 22 21 23 23 23 23 24 23 21 21 21 22 23 22 23 22 25 24 19 16 16 18 21 20 20 19 21 23 23 23 23 24
12 12 12 13 14 14 15 16 13 14 18 20 21 20 21 22 23 23 21 21 20 20 20 21 21 22 23 23 23 23 19 18 20 18 19 20 19 21 22 20 23 24 24 24 24
12 12 13 14 15 14 14 12 15 17 17 19 20 19 21 21 22 22 20 20 20 18 17 19 19 22 23 23 23 23 20 17 20 19 20 20 20 22 21 23 23 25 25 24 23
12 13 13 14 14 15 14 11 13 15 18 18 18 18 19 20 21 20 19 18 19 19 19 18 20 21 22 24 23 22 21 21 18 18 18 18 20 22 22 22 20 21 24 25 24
11 12 13 13 13 14 11 11 13 15 17 18 18 19 19 19 20 19 19 20 18 19 19 19 19 21 22 22 22 22 21 21 16 20 20 19 20 21 23 22 20 19 21 24 24
11 12 12 12 12 12 10 10 13 16 17 18 18 18 19 20 20 19 17 20 18 18 19 18 18 19 21 21 21 20 19 18 17 16 18 18 17 18 20 21 19 19 19 21 21
11 8 11 11 11 8 9 11 16 16 17 17 17 17 18 19 20 19 18 18 18 18 18 17 14 18 19 20 20 21 21 18 16 19 15 16 17 20 18 19 18 17 17 18 20
11 11 11 11 9 9 11 14 16 16 16 17 17 18 19 19 19 19 18 19 18 17 18 17 15 15 18 19 19 21 20 19 15 14 17 18 18 18 17 18 18 16 17 17 19
10 7 11 11 11 11 13 14 15 16 16 17 16 17 18 19 17 18 18 18 18 17 16 15 12 15 16 18 18 19 20 21 18 16 17 16 19 19 19 17 16 16 16 17 19
9 7 8 9 10 11 13 14 14 15 16 17 16 16 17 18 18 18 18 18 18 16 15 14 15 15 15 15 16 18 19 19 20 19 19 19 18 18 17 16 16 16 16 17 18
9 8 8 9 9 10 11 13 14 15 15 16 16 17 16 16 17 16 17 18 19 16 14 11 15 14 15 18 17 18 19 19 20 21 19 19 20 16 17 17 17 16 17 17 17
8 8 8 9 8 10 11 12 13 13 16 16 17 16 16 16 17 18 18 17 16 16 13 13 13 13 15 15 15 17 19 18 20 19 19 18 19 15 16 16 16 16 18 17 17
Height
1533 1530 1527 1526 1523 1520 1518 1514 1512 1508 1505 1502 1499 1496 1493 1490 1487 1484 1483 1486 1488 1490 1493 1495 1497 1499 1502 1505 1506 1507 1521 1529 1519 1518 1508 1507 1511 1514 1517 1519 1521 1521 1521 1526 1529
1531 1529 1526 1524 1522 1520 1516 1513 1510 1507 1503 1500 1498 1495 1491 1488 1485 1484 1484 1484 1488 1490 1492 1494 1496 1499 1502 1503 1506 1507 1524 1517 1505 1503 1506 1506 1507 1511 1516 1519 1520 1522 1524 1527 1530
1531 1528 1525 1524 1521 1518 1515 1511 1508 1505 1501 1499 1496 1493 1491 1488 1486 1486 1486 1487 1488 1490 1493 1495 1498 1500 1501 1502 1505 1507 1515 1506 1501 1500 1501 1507 1510 1513 1514 1519 1516 1515 1521 1525 1528
1530 1527 1526 1524 1520 1517 1513 1510 1506 1503 1500 1497 1494 1492 1490 1488 1492 1487 1487 1488 1489 1491 1493 1495 1497 1499 1500 1502 1502 1507 1503 1503 1500 1499 1500 1506 1510 1512 1513 1512 1513 1518 1521 1524 1527
1529 1527 1525 1521 1518 1514 1510 1508 1505 1502 1498 1495 1493 1491 1490 1488 1488 1487 1487 1488 1489 1491 1493 1495 1497 1498 1500 1499 1501 1504 1500 1499 1498 1498 1499 1503 1508 1512 1512 1514 1514 1520 1523 1525 1527
1529 1526 1523 1520 1516 1512 1509 1505 1503 1500 1496 1493 1492 1491 1490 1489 1486 1486 1487 1488 1489 1491 1493 1495 1497 1497 1498 1498 1498 1498 1497 1495 1495 1492 1499 1503 1509 1513 1511 1516 1516 1519 1521 1524 1526
1527 1524 1521 1518 1514 1511 1507 1503 1500 1497 1493 1491 1490 1489 1488 1486 1485 1486 1487 1488 1489 1491 1493 1495 1496 1497 1497 1496 1496 1495 1498 1494 1497 1495 1502 1505 1517 1513 1511 1515 1516 1519 1521 1523 1525
1525 1522 1519 1517 1513 1509 1506 1501 1497 1494 1492 1490 1488 1488 1485 1484 1484 1486 1486 1487 1488 1490 1493 1495 1496 1495 1495 1495 1495 1497 1501 1512 1499 1499 1503 1506 1516 1511 1511 1514 1515 1519 1521 1522 1524
1524 1521 1518 1515 1510 1506 1503 1499 1495 1492 1490 1489 1487 1487 1483 1483 1484 1485 1486 1488 1489 1490 1493 1494 1495 1494 1495 1499 1506 1507 1516 1511 1506 1501 1503 1507 1512 1507 1510 1514 1515 1516 1520 1521 1523
1523 1520 1517 1513 1509 1504 1501 1497 1492 1490 1489 1487 1486 1488 1484 1483 1483 1483 1485 1487 1489 1490 1492 1494 1494 1497 1500 1506 1525 1512 1513 1514 1510 1503 1505 1509 1509 1507 1505 1509 1512 1514 1517 1518 1519
1522 1519 1516 1512 1508 1504 1500 1496 1494 1492 1490 1489 1486 1485 1483 1482 1481 1481 1483 1486 1488 1489 1493 1493 1500 1507 1500 1499 1500 1502 1506 1512 1510 1499 1505 1509 1507 1506 1505 1509 1510 1512 1513 1515 1517
1520 1517 1515 1512 1508 1505 1502 1501 1507 1509 1490 1480 1477 1477 1478 1480 1483 1480 1482 1486 1488 1493 1491 1499 1506 1495 1495 1497 1500 1503 1506 1510 1506 1501 1503 1507 1506 1500 1502 1497 1498 1501 1506 1508 1512
1518 1516 1513 1511 1507 1506 1503 1505 1505 1502 1498 1474 1472 1471 1473 1476 1478 1478 1481 1484 1486 1491 1493 1501 1495 1491 1494 1498 1502 1504 1508 1506 1507 1507 1505 1510 1513 1507 1496 1497 1499 1502 1503 1506 1508
1516 1514 1511 1509 1509 1506 1505 1505 1504 1500 1506 1482 1471 1469 1470 1472 1475 1477 1479 1483 1486 1492 1495 1494 1489 1490 1495 1499 1499 1508 1496 1496 1500 1507 1521 1501 1535 1508 1497 1493 1496 1495 1496 1498 1503
1515 1512 1511 1509 1508 1507 1506 1504 1503 1502 1523 1473 1470 1470 1469 1473 1472 1474 1477 1480 1485 1488 1492 1495 1489 1490 1494 1493 1492 1497 1491 1497 1498 1507 1511 1511 1526 1505 1498 1497 1492 1488 1486 1489 1493
1512 1510 1509 1508 1506 1506 1504 1502 1502 1514 1518 1479 1470 1470 1472 1471 1471 1473 1476 1479 1481 1486 1488 1489 1486 1486 1486 1484 1486 1484 1489 1501 1509 1517 1533 1507 1516 1512 1503 1487 1477 1475 1479 1484 1487
1509 1508 1506 1506 1504 1503 1503 1502 1514 1521 1485 1481 1477 1473 1471 1473 1472 1471 1477 1482 1490 1499 1500 1490 1486 1481 1481 1487 1484 1486 1503 1530 1528 1533 1532 1504 1515 1498 1477 1473 1468 1464 1465 1470 1476
1506 1505 1504 1503 1499 1500 1503 1505 1514 1497 1492 1478 1476 1473 1475 1474 1474 1474 1479 1487 1483 1490 1505 1505 1507 1485 1479 1482 1487 1489 1498 1527 1531 1537 1523 1504 1513 1488 1469 1466 1463 1459 1459 1468 1471
1503 1501 1498 1497 1494 1497 1502 1514 1505 1497 1488 1486 1480 1483 1482 1476 1476 1479 1486 1491 1486 1486 1501 1506 1501 1482 1479 1479 1481 1490 1500 1489 1511 1517 1525 1513 1491 1472 1464 1463 1460 1456 1452 1457 1461
1500 1498 1495 1493 1491 1495 1501 1506 1496 1489 1487 1485 1489 1482 1487 1483 1482 1484 1489 1485 1487 1484 1482 1491 1503 1485 1481 1478 1479 1483 1483 1501 1516 1521 1527 1515 1501 1494 1471 1465 1459 1456 1449 1449 1453
1500 1497 1494 1492 1494 1497 1504 1502 1492 1487 1486 1487 1488 1487 1483 1482 1483 1487 1493 1486 1484 1483 1483 1487 1496 1494 1483 1485 1487 1490 1497 1497 1504 1514 1521 1526 1511 1470 1467 1462 1461 1453 1452 1450 1453
1498 1499 1493 1494 1497 1498 1500 1493 1489 1487 1486 1485 1485 1485 1485 1482 1484 1486 1490 1489 1485 1483 1489 1489 1500 1503 1492 1478 1479 1480 1486 1493 1514 1508 1513 1514 1505 1463 1462 1459 1459 1458 1454 1453 1453
1497 1497 1496 1495 1500 1499 1493 1490 1488 1487 1486 1485 1485 1483 1481 1484 1490 1486 1488 1486 1485 1485 1487 1489 1503 1516 1500 1489 1483 1484 1484 1488 1497 1502 1506 1509 1496 1464 1460 1458 1460 1461 1458 1457 1455
1497 1497 1494 1494 1494 1494 1492 1490 1489 1485 1485 1483 1483 1482 1483 1485 1484 1488 1488 1487 1486 1487 1488 1489 1505 1509 1517 1502 1495 1492 1485 1481 1490 1507 1499 1497 1483 1468 1462 1464 1464 1463 1461 1457 1458
1494 1494 1494 1494 1494 1492 1491 1489 1489 1488 1483 1481 1480 1481 1482 1487 1486 1487 1487 1488 1488 1489 1489 1491 1503 1504 1501 1497 1496 1490 1484 1480 1483 1482 1488 1481 1479 1471 1467 1463 1465 1464 1465 1462 1463
1492 1493 1493 1492 1492 1492 1491 1489 1487 1485 1484 1480 1480 1477 1480 1484 1483 1489 1486 1488 1488 1490 1493 1495 1503 1503 1501 1489 1490 1488 1479 1476 1474 1472 1475 1476 1472 1467 1466 1465 1466 1468 1470 1470 1470
1490 1491 1493 1491 1491 1492 1491 1488 1484 1484 1477 1477 1477 1478 1479 1481 1480 1480 1482 1484 1487 1490 1496 1499 1504 1507 1508 1497 1494 1494 1478 1477 1471 1470 1471 1478 1466 1463 1466 1467 1468 1469 1470 1472 1476
Wind_Speed
14 15 16 18 19 21 23 24 24 25 24 23 21 20 18 17 17 13 7 6 12 13 17 13 14 14 11 7 4 4 4 1 4 5 3 17 4 11 6 17 4 2 15 25 24
14 16 17 19 20 22 23 24 26 24 24 22 22 19 17 17 9 9 2 9 16 11 16 16 17 15 7 6 6 4 3 6 5 5 4 12 11 16 5 14 2 10 21 26 26
13 15 18 20 21 23 24 24 25 24 23 22 21 18 15 16 3 5 4 10 11 12 13 13 15 8 4 6 6 4 5 3 7 5 18 11 6 7 11 4 11 27 30 30 29
15 16 18 20 22 24 24 25 23 24 23 22 19 15 13 8 1 3 4 7 10 11 16 15 10 6 4 5 5 3 8 5 5 8 22 13 15 5 18 5 14 30 33 33 31
15 18 20 22 23 24 25 24 22 22 22 19 15 12 10 6 1 1 2 7 10 13 15 12 8 5 4 5 5 4 4 5 9 10 25 25 12 7 22 8 19 28 30 31 29
16 19 22 23 24 25 25 22 22 20 22 16 13 11 8 3 2 1 1 4 8 13 14 10 4 1 3 3 4 7 7 11 1 12 19 13 5 8 23 12 23 25 29 29 28
17 20 22 24 25 25 25 21 23 21 20 14 13 11 10 7 5 2 1 3 5 10 11 9 1 4 1 2 3 1 3 4 6 8 6 20 1 8 12 24 28 26 28 29 28
18 20 22 24 26 24 23 21 22 22 13 11 12 10 6 3 6 4 0 2 5 7 9 6 4 7 3 1 3 3 5 4 3 3 10 12 15 3 20 28 31 30 29 27 27
17 20 22 24 25 24 22 22 21 18 10 14 11 6 5 2 3 5 5 1 4 6 7 4 5 1 1 4 4 7 3 2 2 1 5 4 4 8 25 28 26 31 31 30 28
17 19 21 23 24 23 20 22 18 10 11 13 6 4 4 3 2 4 6 8 3 1 3 4 3 3 4 4 5 4 5 2 1 1 3 4 6 3 30 29 28 32 33 35 34
18 21 22 22 22 20 18 18 18 3 17 19 16 17 23 10 6 1 10 7 5 1 2 3 4 3 5 0 2 4 4 4 4 3 6 10 9 9 21 20 21 27 33 38 38
17 21 23 23 22 12 12 11 13 14 17 31 27 26 27 26 7 3 8 6 4 3 2 5 2 6 2 2 1 0 2 3 2 4 4 8 14 4 16 29 35 35 35 41 41
16 19 22 23 20 10 6 12 17 20 5 14 6 9 11 11 10 7 9 9 3 3 3 5 4 5 2 1 2 2 3 3 6 4 4 7 4 4 9 15 22 24 34 34 41
16 19 22 23 9 20 2 13 16 12 4 7 4 2 9 8 4 13 10 8 2 7 7 4 3 1 2 4 6 2 7 5 4 3 3 1 4 6 5 12 8 25 31 36 38
15 18 20 21 22 20 14 11 11 1 4 3 0 2 8 8 5 11 18 10 7 5 5 6 2 3 1 4 6 7 6 6 4 4 4 2 4 7 0 6 14 22 33 38 43
15 18 20 22 22 11 16 10 2 5 5 6 2 1 4 3 1 5 6 6 5 5 1 6 2 2 6 5 7 3 3 6 4 4 1 6 7 5 5 8 10 27 32 30 37
17 18 21 23 25 18 12 6 4 3 5 6 3 4 1 1 1 2 5 5 5 3 2 3 4 3 4 2 2 3 6 3 3 3 5 1 5 8 7 9 14 19 34 37 38
19 21 22 21 20 11 5 3 3 3 6 5 5 5 3 3 3 1 5 3 1 5 2 1 6 3 2 4 4 3 6 5 5 4 4 2 5 6 6 8 17 27 34 23 34
19 21 22 15 13 9 7 2 7 6 2 6 6 6 6 5 3 4 4 2 3 6 6 2 4 4 2 1 4 1 2 2 5 2 2 4 7 9 5 7 8 13 18 21 34
18 22 10 10 5 17 4 5 4 3 4 3 3 2 3 5 4 4 3 3 4 2 2 7 3 2 4 2 3 3 4 1 3 2 4 5 4 5 5 9 7 7 11 21 31
14 11 6 10 13 7 4 6 5 7 2 1 1 3 2 2 2 2 3 1 3 5 3 3 3 6 1 2 4 4 4 4 4 5 4 3 6 7 8 6 9 7 7 16 23
6 2 5 19 3 0 3 5 2 3 3 2 1 4 3 2 2 3 3 1 13 2 3 3 4 2 8 3 2 3 5 4 4 4 3 3 6 4 6 6 6 10 6 14 22
3 2 11 2 1 2 4 3 2 2 3 1 3 4 2 2 3 2 3 1 13 5 2 1 3 3 8 5 4 1 3 2 3 3 5 4 6 5 3 1 4 7 12 17 20
3 1 4 8 8 2 3 3 3 4 5 5 4 2 2 1 3 4 2 2 4 4 8 2 3 4 5 5 1 5 5 3 4 2 3 5 6 4 1 3 3 7 13 21 27
4 2 1 1 2 2 3 2 2 3 4 6 2 5 4 3 2 3 2 1 2 4 3 3 3 1 5 8 4 5 7 8 5 6 5 5 5 6 6 5 4 10 12 17 18
3 3 2 2 5 2 2 2 3 3 4 4 3 1 6 6 7 6 5 2 3 4 3 3 1 2 4 4 4 5 8 8 5 2 4 1 2 4 3 6 9 11 15 19 20
9 4 0 1 2 2 2 3 5 4 7 7 2 2 5 3 0 5 5 5 3 4 2 2 3 2 4 5 8 6 4 4 3 1 1 6 8 5 4 6 9 17 20 22 18
Wind_Direction
349 350 350 348 347 346 345 346 346 340 340 336 337 336 335 330 325 313 287 197 171 166 177 175 171 170 166 158 149 139 59 285 247 164 210 152 130 158 126 147 162 127 157 155 159
349 349 350 348 347 344 344 343 341 340 334 332 333 335 337 334 342 28 109 161 167 157 171 173 166 165 163 163 176 103 105 227 223 192 188 152 147 156 132 164 163 161 156 164 163
350 350 349 347 345 344 342 340 337 337 328 329 328 332 336 337 356 32 104 150 164 175 169 168 160 165 157 159 172 155 177 210 283 254 154 137 122 156 144 243 208 165 165 172 171
350 350 348 345 343 341 339 338 337 330 328 325 324 328 336 345 136 28 165 167 170 169 162 162 172 167 139 162 169 137 249 200 279 176 152 157 153 168 181 249 201 170 168 173 178
344 343 342 342 340 338 337 337 335 330 330 327 325 328 338 324 327 34 156 188 188 176 168 174 172 149 169 178 144 158 256 229 224 235 176 165 168 181 210 290 176 169 175 178 183
337 338 339 339 337 335 335 332 328 330 329 324 328 326 323 304 172 324 213 197 193 182 180 178 178 307 194 196 161 195 245 286 145 206 160 142 161 158 222 212 173 177 183 186 191
332 336 338 339 336 331 334 329 320 327 325 316 317 318 296 270 187 206 159 185 197 191 186 186 156 350 311 199 200 239 297 15 26 105 128 133 83 228 217 180 178 189 190 195 201
329 334 338 340 338 331 332 325 318 326 322 323 318 310 265 204 195 193 177 204 198 193 193 216 281 308 214 297 36 92 54 41 317 152 150 151 220 177 176 179 187 193 200 205 208
325 331 336 340 339 333 331 324 318 314 295 318 316 307 277 187 209 234 234 135 153 158 185 217 282 307 295 96 27 4 118 57 114 287 137 144 236 171 177 185 193 199 205 212 214
322 327 333 340 340 336 332 330 320 293 295 307 290 301 249 147 10 297 227 202 125 141 162 186 150 70 31 65 195 170 109 54 121 204 184 197 252 194 182 187 198 198 210 215 219
322 327 332 340 341 343 335 351 12 328 317 286 271 279 284 281 312 295 205 213 220 75 100 31 76 193 220 306 64 115 114 141 266 248 135 217 245 207 196 200 203 205 208 214 220
319 325 331 338 340 359 357 53 31 325 305 300 294 270 263 268 283 206 184 177 152 169 127 27 196 224 138 144 131 8 142 255 218 235 144 228 241 257 191 208 206 204 208 215 217
317 323 329 337 339 5 19 20 353 335 271 305 270 246 251 217 214 221 191 178 138 167 143 158 206 108 136 67 146 218 197 189 218 175 232 141 261 240 237 236 216 220 221 221 220
314 321 328 336 345 342 2 338 338 329 25 280 287 296 184 178 231 203 188 172 105 197 156 223 278 190 112 255 148 224 207 215 226 73 222 66 265 293 252 229 223 222 223 226 224
308 315 324 331 326 331 314 333 332 332 356 267 231 148 157 174 152 197 198 189 175 177 117 249 160 127 137 225 163 221 155 186 192 165 112 313 104 268 59 247 232 232 226 226 228
300 309 315 319 320 337 320 332 338 45 259 316 74 163 133 244 187 118 160 182 169 132 352 232 230 229 209 194 188 244 134 52 52 93 70 224 157 268 196 212 233 236 234 226 227
293 303 310 314 313 315 313 332 52 150 323 316 340 357 260 172 217 111 145 157 160 112 320 309 235 248 187 203 307 91 66 334 355 10 218 136 106 231 241 242 230 235 232 222 220
294 304 308 310 293 281 281 47 154 242 267 314 353 343 100 8 36 62 103 172 210 92 111 167 340 215 167 175 169 170 146 157 205 197 256 92 223 250 212 254 273 248 249 231 218
301 309 312 308 279 213 163 104 202 210 306 329 326 49 11 9 92 78 69 348 233 175 162 142 282 306 253 325 121 136 166 200 112 20 67 248 289 309 243 264 292 278 243 217 213
312 319 321 333 246 169 101 232 240 229 329 353 30 21 35 358 46 68 22 297 337 180 274 209 310 261 282 26 327 167 169 61 11 201 247 284 270 232 270 250 259 249 188 193 205
317 321 302 306 156 170 169 225 260 268 294 14 336 328 305 17 43 67 348 266 29 331 149 124 124 284 336 177 193 19 335 57 120 150 194 235 260 220 234 251 269 255 247 187 187
308 336 341 138 111 247 177 202 249 279 295 298 197 231 247 212 38 87 114 305 341 304 54 338 143 233 233 275 336 139 229 151 128 255 235 184 269 321 278 257 238 254 185 165 168
266 250 167 235 141 265 268 271 277 286 251 330 272 208 187 257 100 90 127 184 12 40 54 77 16 17 343 6 20 158 192 170 99 73 219 184 266 345 45 83 223 202 160 159 149
237 8 209 223 244 220 209 253 260 260 258 229 245 233 214 215 7 145 127 351 12 53 42 91 96 143 197 241 259 293 290 222 142 121 256 231 295 303 314 1 8 136 154 149 150
201 229 173 228 265 234 236 302 271 306 236 207 229 217 191 139 75 108 101 97 30 33 41 82 97 292 250 253 246 249 259 282 214 226 178 266 224 278 264 169 161 151 146 135 136
197 171 201 277 302 265 165 258 253 260 229 259 207 189 178 153 182 183 136 176 209 41 60 2 173 149 276 290 298 276 282 269 245 146 137 273 290 222 254 156 139 140 138 128 133
198 196 287 334 325 122 214 275 256 323 257 253 302 118 79 31 72 90 115 121 112 133 109 71 114 52 294 338 328 311 249 286 295 335 209 183 224 160 150 152 154 146 149 133 126